Flag Weather past 2 weeks in Brattleboro, Vermont, U.S.A.

Now
37 °F

Passing clouds.


Feels Like: 37 °F
Forecast: 33 / 53 °F
Wind: No wind

Location: Keene / Dillant

Current Time: Oct 31, 2014 at 4:03:11 AM

Latest Report: Oct 31, 2014 at 3:35 AM


Visibility: 10 mi

Pressure: 30.01 "Hg

Humidity: 75%

Dew point: 30 °F

Location of BrattleboroLocation

Historic Weather in Brattleboro — Graph

°F

Brattleboro temperature yesterday

Maximum temperature yesterday: 54 °F (at 2:35 PM)
Minimum temperature yesterday: 34 °F (at 6:55 AM)
Average temperature yesterday: 43 °F

Past Weeks' High & Low Weather Summary

 TemperatureHumidityPressure
High72 °F (Oct 16, 10:55 AM)82% (Oct 16, 11:15 PM)30.09 "Hg (Oct 16, 11:15 PM)
Low28 °F (Oct 20, 7:15 AM)37% (Oct 19, 2:55 PM)29.45 "Hg (Oct 26, 4:55 AM)
Average50 °F65%29.82 "Hg
* Reported Oct 16 2:15 AM — Oct 31 2:55 AM, Brattleboro, Weather by CustomWeather, © 2014

Note: Actual official high and low records may vary slightly from our data, if they occured in-between our weather recording intervals... More about our weather records

Advertising

Brattleboro weather history for previous 24 hours

 ConditionsComfort  
Time TempWeatherWind HumidityBarometerVisibility
2:55 AM
Oct 31
37 °FClear.No wind75%30.00 "Hg10 mi
2:35 AM39 °FPassing clouds.No wind75%30.01 "Hg10 mi
2:15 AM39 °FPassing clouds.No wind75%30.01 "Hg10 mi
1:55 AM41 °FOvercast.No wind76%30.01 "Hg10 mi
1:35 AM43 °FOvercast.No wind71%30.01 "Hg10 mi
1:15 AM43 °FOvercast.No wind71%30.01 "Hg10 mi
12:55 AM43 °FOvercast.No wind71%30.01 "Hg10 mi
12:35 AM43 °FOvercast.5 mph71%30.01 "Hg10 mi
12:15 AM45 °FOvercast.No wind66%30.00 "Hg10 mi
11:55 PM
Oct 30
43 °FOvercast.No wind76%30.00 "Hg10 mi
11:35 PM43 °FOvercast.No wind76%30.00 "Hg10 mi
10:55 PM45 °FOvercast.No wind71%30.00 "Hg10 mi
10:35 PM45 °FOvercast.No wind71%29.99 "Hg9 mi
10:15 PM45 °FOvercast.No wind71%29.99 "Hg10 mi
9:55 PM45 °FOvercast.No wind71%30.00 "Hg10 mi
9:35 PM45 °FOvercast.No wind71%29.99 "Hg10 mi
9:15 PM45 °FOvercast.No wind71%29.98 "Hg10 mi
8:55 PM45 °FOvercast.No wind71%29.98 "Hg10 mi
8:35 PM45 °FOvercast.No wind71%29.98 "Hg10 mi
7:55 PM45 °FOvercast.No wind66%29.97 "Hg10 mi
7:35 PM45 °FOvercast.No wind66%29.97 "Hg10 mi
7:15 PM45 °FOvercast.No wind66%29.97 "Hg10 mi
6:55 PM45 °FOvercast.No wind66%29.97 "Hg10 mi
6:35 PM45 °FOvercast.No wind66%29.96 "Hg10 mi
6:15 PM45 °FScattered clouds.No wind61%29.96 "Hg10 mi
5:55 PM46 °FSunny.No wind62%29.95 "Hg10 mi
5:35 PM50 °FSunny.No wind54%29.95 "Hg10 mi
5:15 PM52 °FScattered clouds.3 mph47%29.95 "Hg10 mi
4:55 PM54 °FPartly sunny.5 mph44%29.94 "Hg10 mi
4:35 PM54 °FOvercast.6 mph44%29.94 "Hg10 mi
4:15 PM54 °FOvercast.6 mph47%29.94 "Hg10 mi
3:55 PM54 °FPartly sunny.8 mph44%29.93 "Hg10 mi
3:35 PM54 °FScattered clouds.7 mph44%29.93 "Hg10 mi
3:15 PM52 °FPartly sunny.3 mph50%29.93 "Hg10 mi
2:55 PM52 °FMore clouds than sun.8 mph50%29.93 "Hg10 mi
2:35 PM54 °FPartly sunny.7 mph44%29.93 "Hg10 mi
2:15 PM52 °FSunny.7 mph50%29.93 "Hg10 mi
1:55 PM52 °FScattered clouds.6 mph50%29.93 "Hg10 mi
1:35 PM52 °FMore clouds than sun.6 mph50%29.93 "Hg10 mi
1:15 PM52 °FOvercast.6 mph50%29.94 "Hg10 mi
12:55 PM52 °FCloudy.12 mph50%29.94 "Hg10 mi
12:35 PM52 °FCloudy.No wind54%29.94 "Hg10 mi
12:15 PM52 °FOvercast.8 mph58%29.95 "Hg10 mi
11:55 AM48 °FPartly sunny.No wind66%29.95 "Hg10 mi
11:35 AM46 °FScattered clouds.No wind71%29.95 "Hg10 mi
11:15 AM45 °FScattered clouds.3 mph71%29.96 "Hg10 mi
10:55 AM43 °FOvercast.No wind76%29.96 "Hg10 mi
10:35 AM43 °FOvercast.No wind71%29.96 "Hg10 mi
10:15 AM39 °FOvercast.No wind81%29.96 "Hg10 mi
9:55 AM39 °FOvercast.No wind75%29.96 "Hg10 mi
9:35 AM37 °FOvercast.No wind75%29.96 "Hg10 mi
9:15 AM37 °FOvercast.No wind75%29.96 "Hg10 mi
8:55 AM37 °FLow clouds.No wind75%29.96 "Hg10 mi
8:35 AM36 °FMore clouds than sun.No wind75%29.96 "Hg9 mi
8:15 AM36 °FMostly cloudy.No wind75%29.96 "Hg5 mi
7:55 AM36 °FMostly cloudy.No wind75%29.95 "Hg2 mi
7:35 AM36 °FLow clouds.No wind75%29.94 "Hg1 mi
7:15 AM34 °FLow clouds.No wind75%29.93 "Hg1 mi
6:55 AM34 °FLow clouds.No wind75%29.93 "Hg1 mi
6:35 AM36 °FLow clouds.No wind75%29.93 "Hg0 mi
5:55 AM36 °FLow clouds.No wind75%29.92 "Hg0 mi
5:35 AM36 °FLow clouds.No wind75%29.92 "Hg0 mi
5:15 AM36 °FLow clouds.No wind75%29.91 "Hg0 mi
4:55 AM36 °FLow clouds.No wind75%29.91 "Hg0 mi
4:35 AM36 °FLow clouds.No wind81%29.91 "Hg0 mi
4:15 AM36 °FLow clouds.No wind75%29.91 "Hg0 mi
Weather by CustomWeather, © 2014

See weather overviewHow to use our weather pages